Zurück zum Katalog

CZ-6A DEB

AktivSSO
NORAD 54306·DEBRIS·🇨🇳 China

Gestartet Nov 11, 2022 von Taiyuan Satellite Launch Center

Loading…

Nächste Überflüge (nächste 24 Stunden)

TLE

AktuellSource: Space-Track

Epoche: Sep 14, 2026, 06:49 UTC

1 54306U 22151AZ  26257.28458234  .00000240  00000-0  15440-3 0  9990
2 54306  98.8401 258.7033 0040853  75.0477 285.5212 14.11725738197166

Verfolge CZ-6A DEB in Echtzeit mit AllMySat

Download on the App Store